Time,TemperatureF,DewpointF,PressureIn,WindDirection,WindDirectionDegrees,WindSpeedMPH,WindSpeedGustMPH,Humidity,HourlyPrecipIn,Conditions,Clouds,dailyrainin,SolarRadiationWatts/m^2,SoftwareType,DateUTC
2013-02-19 00:02:00,0.0,-7.0,29.94,NW,321,7.0,16.0,72,0.00,,,0.00,1.000000,,2013-02-19 06:02:00,
2013-02-19 00:33:00,0.0,-7.0,29.97,NNW,335,8.0,14.0,72,0.00,,,-99.99,1.000000,,2013-02-19 06:33:00,
2013-02-19 00:42:00,0.0,-7.0,29.97,NNW,335,8.0,14.0,72,0.00,,,-99.99,1.000000,,2013-02-19 06:42:00,
2013-02-19 00:52:00,0.0,-7.0,29.97,NNW,335,8.0,14.0,72,0.00,,,-99.99,1.000000,,2013-02-19 06:52:00,
2013-02-19 01:01:00,0.0,-7.0,29.97,NNW,335,8.0,14.0,72,0.00,,,-99.99,1.000000,,2013-02-19 07:01:00,
2013-02-19 01:32:00,0.0,-7.0,29.99,NNW,332,7.0,16.0,71,0.00,,,0.00,1.000000,,2013-02-19 07:32:00,
2013-02-19 01:42:00,0.0,-7.0,29.99,NNW,332,7.0,16.0,71,0.00,,,0.00,1.000000,,2013-02-19 07:42:00,
2013-02-19 01:52:00,0.0,-7.0,29.99,NNW,332,7.0,16.0,71,0.00,,,0.00,1.000000,,2013-02-19 07:52:00,
2013-02-19 02:02:00,0.0,-7.0,29.99,NNW,332,7.0,16.0,71,0.00,,,0.00,1.000000,,2013-02-19 08:02:00,
2013-02-19 02:32:00,0.0,-8.0,30.00,NNW,328,9.0,20.0,69,0.00,,,0.00,1.000000,,2013-02-19 08:32:00,
2013-02-19 02:42:00,0.0,-8.0,30.00,NNW,328,9.0,20.0,69,0.00,,,0.00,1.000000,,2013-02-19 08:42:00,
2013-02-19 02:52:00,0.0,-8.0,30.00,NNW,328,9.0,20.0,69,0.00,,,0.00,1.000000,,2013-02-19 08:52:00,
2013-02-19 03:01:00,0.0,-8.0,30.00,NNW,328,9.0,20.0,69,0.00,,,0.00,1.000000,,2013-02-19 09:01:00,
2013-02-19 03:32:00,0.0,-8.0,30.01,NNW,337,8.0,18.0,69,0.00,,,0.00,1.000000,,2013-02-19 09:32:00,
2013-02-19 03:42:00,0.0,-8.0,30.01,NNW,337,8.0,18.0,69,0.00,,,0.00,1.000000,,2013-02-19 09:42:00,
2013-02-19 03:53:00,0.0,-8.0,30.01,NNW,337,8.0,18.0,69,0.00,,,0.00,1.000000,,2013-02-19 09:53:00,
2013-02-19 04:01:00,0.0,-8.0,30.01,NNW,337,8.0,18.0,69,0.00,,,0.00,1.000000,,2013-02-19 10:01:00,
2013-02-19 04:32:00,-1.0,-10.0,30.03,NNW,337,10.0,20.0,66,0.00,,,0.00,1.000000,,2013-02-19 10:32:00,
2013-02-19 04:42:00,-1.0,-10.0,30.03,NNW,337,10.0,20.0,66,0.00,,,0.00,1.000000,,2013-02-19 10:42:00,
2013-02-19 04:52:00,-1.0,-10.0,30.03,NNW,337,10.0,20.0,66,0.00,,,0.00,1.000000,,2013-02-19 10:52:00,
2013-02-19 05:01:00,-1.0,-10.0,30.03,NNW,337,10.0,20.0,66,0.00,,,0.00,1.000000,,2013-02-19 11:01:00,
2013-02-19 05:32:00,-2.0,-10.0,30.05,NNW,340,8.0,15.0,68,0.00,,,0.00,1.000000,,2013-02-19 11:32:00,
2013-02-19 05:42:00,-2.0,-10.0,30.05,NNW,340,8.0,15.0,68,0.00,,,0.00,1.000000,,2013-02-19 11:42:00,
2013-02-19 05:52:00,-2.0,-10.0,30.05,NNW,340,8.0,15.0,68,0.00,,,0.00,1.000000,,2013-02-19 11:52:00,
2013-02-19 06:02:00,-2.0,-10.0,30.05,NNW,340,8.0,15.0,68,0.00,,,0.00,1.000000,,2013-02-19 12:02:00,
2013-02-19 06:32:00,-5.0,-12.0,30.08,NW,318,6.0,17.0,70,0.00,,,0.00,1.000000,,2013-02-19 12:32:00,
2013-02-19 06:42:00,-5.0,-12.0,30.08,NW,318,6.0,17.0,70,0.00,,,0.00,1.000000,,2013-02-19 12:42:00,
2013-02-19 06:52:00,-5.0,-12.0,30.08,NW,318,6.0,17.0,70,0.00,,,0.00,1.000000,,2013-02-19 12:52:00,
2013-02-19 07:02:00,-5.0,-12.0,30.08,NW,318,6.0,17.0,70,0.00,,,0.00,1.000000,,2013-02-19 13:02:00,
2013-02-19 07:32:00,-7.0,-14.0,30.10,NW,325,6.0,16.0,69,0.00,,,0.00,1.000000,,2013-02-19 13:32:00,
2013-02-19 07:42:00,-7.0,-14.0,30.10,NW,325,6.0,16.0,69,0.00,,,0.00,1.000000,,2013-02-19 13:42:00,
2013-02-19 07:52:00,-7.0,-14.0,30.10,NW,325,6.0,16.0,69,0.00,,,0.00,1.000000,,2013-02-19 13:52:00,
2013-02-19 08:01:00,-7.0,-14.0,30.10,NW,325,6.0,16.0,69,0.00,,,0.00,1.000000,,2013-02-19 14:01:00,
2013-02-19 08:33:00,-8.0,-16.0,30.13,NW,324,8.0,17.0,66,0.00,,,0.00,19.000000,,2013-02-19 14:33:00,
2013-02-19 08:42:00,-8.0,-16.0,30.13,NW,324,8.0,17.0,66,0.00,,,0.00,19.000000,,2013-02-19 14:42:00,
2013-02-19 08:52:00,-8.0,-16.0,30.13,NW,324,8.0,17.0,66,0.00,,,0.00,19.000000,,2013-02-19 14:52:00,
2013-02-19 09:01:00,-8.0,-16.0,30.13,NW,324,8.0,17.0,66,0.00,,,0.00,19.000000,,2013-02-19 15:01:00,
2013-02-19 09:32:00,-8.0,-19.0,30.16,NNW,333,9.0,18.0,58,0.00,,,0.00,108.000000,,2013-02-19 15:32:00,
2013-02-19 09:42:00,-8.0,-19.0,30.16,NNW,333,9.0,18.0,58,0.00,,,0.00,108.000000,,2013-02-19 15:42:00,
2013-02-19 09:52:00,-8.0,-19.0,30.16,NNW,333,9.0,18.0,58,0.00,,,0.00,108.000000,,2013-02-19 15:52:00,
2013-02-19 10:02:00,-8.0,-19.0,30.16,NNW,333,9.0,18.0,58,0.00,,,0.00,108.000000,,2013-02-19 16:02:00,
2013-02-19 12:32:00,-1.0,-16.0,30.22,NNW,335,9.0,18.0,48,-99.99,,,0.00,536.000000,,2013-02-19 18:32:00,
2013-02-19 12:42:00,-1.0,-16.0,30.22,NNW,335,9.0,18.0,48,-99.99,,,0.00,536.000000,,2013-02-19 18:42:00,
2013-02-19 12:52:00,-1.0,-16.0,30.22,NNW,335,9.0,18.0,48,-99.99,,,0.00,536.000000,,2013-02-19 18:52:00,
2013-02-19 13:01:00,-1.0,-16.0,30.22,NNW,335,9.0,18.0,48,-99.99,,,0.00,536.000000,,2013-02-19 19:01:00,
2013-02-19 13:32:00,1.0,-15.0,30.22,North,349,9.0,19.0,46,0.00,,,0.00,572.000000,,2013-02-19 19:32:00,
2013-02-19 13:42:00,1.0,-15.0,30.22,North,349,9.0,19.0,46,0.00,,,0.00,572.000000,,2013-02-19 19:42:00,
2013-02-19 13:52:00,1.0,-15.0,30.22,North,349,9.0,19.0,46,0.00,,,0.00,572.000000,,2013-02-19 19:52:00,
2013-02-19 14:01:00,1.0,-15.0,30.22,North,349,9.0,19.0,46,0.00,,,0.00,572.000000,,2013-02-19 20:01:00,
2013-02-19 14:32:00,2.0,-14.0,30.23,NW,320,8.0,18.0,47,0.00,,,-99.99,545.000000,,2013-02-19 20:32:00,
2013-02-19 14:42:00,2.0,-14.0,30.23,NW,320,8.0,18.0,47,0.00,,,-99.99,545.000000,,2013-02-19 20:42:00,
2013-02-19 14:52:00,2.0,-14.0,30.23,NW,320,8.0,18.0,47,0.00,,,-99.99,545.000000,,2013-02-19 20:52:00,
2013-02-19 15:02:00,2.0,-14.0,30.23,NW,320,8.0,18.0,47,0.00,,,-99.99,545.000000,,2013-02-19 21:02:00,
2013-02-19 15:32:00,4.0,-12.0,30.25,NNW,335,8.0,17.0,46,0.00,,,0.00,471.000000,,2013-02-19 21:32:00,
2013-02-19 15:42:00,4.0,-12.0,30.25,NNW,335,8.0,17.0,46,0.00,,,0.00,471.000000,,2013-02-19 21:42:00,
2013-02-19 15:52:00,4.0,-12.0,30.25,NNW,335,8.0,17.0,46,0.00,,,0.00,471.000000,,2013-02-19 21:52:00,
2013-02-19 16:02:00,4.0,-12.0,30.25,NNW,335,8.0,17.0,46,0.00,,,0.00,471.000000,,2013-02-19 22:02:00,
2013-02-19 16:32:00,4.0,-11.0,30.27,NW,326,8.0,15.0,48,0.00,,,-99.99,350.000000,,2013-02-19 22:32:00,
2013-02-19 16:42:00,4.0,-11.0,30.27,NW,326,8.0,15.0,48,0.00,,,-99.99,350.000000,,2013-02-19 22:42:00,
2013-02-19 16:52:00,4.0,-11.0,30.27,NW,326,8.0,15.0,48,0.00,,,-99.99,350.000000,,2013-02-19 22:52:00,
2013-02-19 17:01:00,4.0,-11.0,30.27,NW,326,8.0,15.0,48,0.00,,,-99.99,350.000000,,2013-02-19 23:01:00,
2013-02-19 17:32:00,1.0,-13.0,30.30,NW,318,7.0,14.0,51,0.00,,,0.00,188.000000,,2013-02-19 23:32:00,
2013-02-19 17:42:00,1.0,-13.0,30.30,NW,318,7.0,14.0,51,0.00,,,0.00,188.000000,,2013-02-19 23:42:00,
2013-02-19 17:52:00,1.0,-13.0,30.30,NW,318,7.0,14.0,51,0.00,,,0.00,188.000000,,2013-02-19 23:52:00,
2013-02-19 18:01:00,1.0,-13.0,30.30,NW,318,7.0,14.0,51,0.00,,,0.00,188.000000,,2013-02-20 00:01:00,
2013-02-19 18:32:00,-4.0,-15.0,30.31,NW,322,5.0,11.0,59,0.00,,,0.00,19.000000,,2013-02-20 00:32:00,
2013-02-19 18:42:00,-4.0,-15.0,30.31,NW,322,5.0,11.0,59,0.00,,,0.00,19.000000,,2013-02-20 00:42:00,
2013-02-19 18:52:00,-4.0,-15.0,30.31,NW,322,5.0,11.0,59,0.00,,,0.00,19.000000,,2013-02-20 00:52:00,
2013-02-19 19:02:00,-4.0,-15.0,30.31,NW,322,5.0,11.0,59,0.00,,,0.00,19.000000,,2013-02-20 01:02:00,
2013-02-19 19:32:00,-6.0,-15.0,30.33,NW,311,5.0,9.0,63,0.00,,,0.00,0.000000,,2013-02-20 01:32:00,
2013-02-19 19:42:00,-6.0,-15.0,30.33,NW,311,5.0,9.0,63,0.00,,,0.00,0.000000,,2013-02-20 01:42:00,
2013-02-19 19:52:00,-6.0,-15.0,30.33,NW,311,5.0,9.0,63,0.00,,,0.00,0.000000,,2013-02-20 01:52:00,
2013-02-19 20:01:00,-6.0,-15.0,30.33,NW,311,5.0,9.0,63,0.00,,,0.00,0.000000,,2013-02-20 02:01:00,
2013-02-19 20:32:00,-8.0,-17.0,30.35,NW,321,3.0,9.0,65,0.00,,,0.00,1.000000,,2013-02-20 02:32:00,
2013-02-19 20:42:00,-8.0,-17.0,30.35,NW,321,3.0,9.0,65,0.00,,,0.00,1.000000,,2013-02-20 02:42:00,
2013-02-19 20:52:00,-8.0,-17.0,30.35,NW,321,3.0,9.0,65,0.00,,,0.00,1.000000,,2013-02-20 02:52:00,
2013-02-19 21:02:00,-8.0,-17.0,30.35,NW,321,3.0,9.0,65,0.00,,,0.00,1.000000,,2013-02-20 03:02:00,
2013-02-19 21:32:00,-9.0,-17.0,30.36,NNW,334,3.0,6.0,66,0.00,,,0.00,1.000000,,2013-02-20 03:32:00,
2013-02-19 21:42:00,-9.0,-17.0,30.36,NNW,334,3.0,6.0,66,0.00,,,0.00,1.000000,,2013-02-20 03:42:00,
2013-02-19 21:52:00,-9.0,-17.0,30.36,NNW,334,3.0,6.0,66,0.00,,,0.00,1.000000,,2013-02-20 03:52:00,
2013-02-19 22:01:00,-9.0,-17.0,30.36,NNW,334,3.0,6.0,66,0.00,,,0.00,1.000000,,2013-02-20 04:01:00,
2013-02-19 22:32:00,-12.0,-19.0,30.37,NW,317,3.0,6.0,69,0.00,,,0.00,0.000000,,2013-02-20 04:32:00,
2013-02-19 22:42:00,-12.0,-19.0,30.37,NW,317,3.0,6.0,69,0.00,,,0.00,0.000000,,2013-02-20 04:42:00,
2013-02-19 22:52:00,-12.0,-19.0,30.37,NW,317,3.0,6.0,69,0.00,,,0.00,0.000000,,2013-02-20 04:52:00,
2013-02-19 23:02:00,-12.0,-19.0,30.37,NW,317,3.0,6.0,69,0.00,,,0.00,0.000000,,2013-02-20 05:02:00,
2013-02-19 23:32:00,-15.0,-22.0,30.37,North,2,1.0,6.0,68,0.00,,,0.00,0.000000,,2013-02-20 05:32:00,
2013-02-19 23:43:00,-15.0,-22.0,30.37,North,2,1.0,6.0,68,0.00,,,0.00,0.000000,,2013-02-20 05:43:00,
2013-02-19 23:52:00,-15.0,-22.0,30.37,North,2,1.0,6.0,68,0.00,,,0.00,0.000000,,2013-02-20 05:52:00,